Lovelock, NV

2:52 AM PDT on August 30, 2016 (GMT -0700)
Derby

Weather History for KLOL - September, 1975

Change the Weather History Date:

Monday, September 1, 1975

  Actual Average Record
Temperature  
Mean Temperature 65 °F -  
Max Temperature 75 °F 89 °F 103 °F (1950)
Min Temperature 55 °F 48 °F 34 °F (1957)
Growing Degree Days 15 (Base 50)    
Moisture  
Dew Point 29 °F    
Average Humidity 27    
Maximum Humidity 43    
Minimum Humidity 14    
Precipitation  
Precipitation 0.00 in - - ()
Sea Level Pressure  
Sea Level Pressure 29.90 in    
Wind  
Wind Speed 7 mph (NNW)    
Max Wind Speed 17 mph    
Max Gust Speed 26 mph    
Visibility 20 miles    
Events      
Averages and records for this station are not official NWS values.
T = Trace of Precipitation, MM = Missing Value Source: NWS Daily Summary

Daily Weather History Graph

Daily Weather History Graph

Search for Another Location

Airport or City:

Trip Planner

Search our weather history database for the weather conditions in past years. The results will help you decide how hot, cold, wet, or windy it might be!

Date:

Astronomy

Sep. 01, 1975 Rise Set
Actual Time 6:21 AM PDT 7:26 PM PDT
Civil Twilight 5:53 AM PDT 7:54 PM PDT
Nautical Twilight 5:20 AM PDT 8:27 PM PDT
Astronomical Twilight 4:45 AM PDT 9:01 PM PDT
Moon 1:35 AM PDT (9/1) 4:24 PM PDT (9/1)
Length of Visible Light 14h 00m
Length of Day
13h 05m
Waning Crescent, 22% of the Moon is Illuminated
Sep 1
Waning Crescent
Sep 5
New
Sep 12
First Quarter
Sep 20
Full
Sep 28
Last Quarter

Hourly Weather History & Observations

Time (PDT) Temp. Dew Point Humidity Pressure Visibility Wind Dir Wind Speed Gust Speed Precip Events Conditions
12:00 AM 66.9 °F 27.1 °F 22% 29.79 in 40.0 mi Calm Calm - N/A   Clear
2:00 AM 57.9 °F 34.0 °F 41% 29.80 in 20.0 mi Calm Calm - N/A   Clear
3:00 AM 57.9 °F 31.1 °F 36% 29.80 in 20.0 mi NNE 8.1 mph - N/A   Mostly Cloudy
4:00 AM 57.9 °F 31.1 °F 36% 29.78 in 20.0 mi Calm Calm - N/A   Mostly Cloudy
5:00 AM 57.9 °F 32.0 °F 37% 29.78 in 20.0 mi NNE 5.8 mph - N/A   Mostly Cloudy
6:00 AM 59.0 °F 31.1 °F 35% 29.81 in 20.0 mi North 8.1 mph - N/A   Mostly Cloudy
7:00 AM 55.0 °F 33.1 °F 43% 29.83 in 50.0 mi Calm Calm - N/A   Scattered Clouds
8:00 AM 57.0 °F 29.1 °F 35% 29.86 in 50.0 mi ENE 5.8 mph - N/A   Scattered Clouds
9:00 AM 66.9 °F 32.0 °F 27% 29.87 in 50.0 mi NW 16.1 mph - N/A   Scattered Clouds
10:00 AM 68.0 °F 31.1 °F 25% 29.88 in 50.0 mi NNW 13.8 mph - N/A   Scattered Clouds
11:00 AM 71.1 °F 33.1 °F 25% 29.90 in 50.0 mi West 15.0 mph 24.2 mph N/A   Scattered Clouds
12:00 PM 70.0 °F 34.0 °F 27% 29.91 in 50.0 mi West 16.1 mph 23.0 mph N/A   Scattered Clouds
1:00 PM 73.0 °F 31.1 °F 21% 29.91 in 50.0 mi West 12.7 mph 20.7 mph N/A   Scattered Clouds
2:00 PM 75.0 °F 27.1 °F 17% 29.92 in 50.0 mi West 13.8 mph 24.2 mph N/A   Scattered Clouds
3:00 PM 75.9 °F 27.1 °F 16% 29.92 in 50.0 mi WNW 15.0 mph 26.5 mph N/A   Clear
4:00 PM 73.9 °F 25.2 °F 16% 29.92 in 50.0 mi WNW 15.0 mph 21.9 mph N/A   Clear
5:00 PM 75.0 °F 23.2 °F 14% 29.94 in 50.0 mi NW 17.3 mph - N/A   Clear
6:00 PM 73.9 °F 22.1 °F 14% 29.95 in 50.0 mi NW 12.7 mph - N/A   Clear
7:00 PM 71.1 °F 25.2 °F 18% 29.97 in 50.0 mi NE 9.2 mph - N/A   Clear
8:00 PM 64.9 °F 27.1 °F 24% 30.00 in 35.0 mi NNE 15.0 mph - N/A   Clear
9:00 PM 60.1 °F 29.1 °F 31% 30.01 in 20.0 mi NNE 10.4 mph - N/A   Clear
10:00 PM 55.9 °F 26.2 °F 32% 30.04 in 20.0 mi NE 8.1 mph - N/A   Clear
11:00 PM 55.0 °F 29.1 °F 37% 30.04 in 20.0 mi NNE 10.4 mph - N/A   Clear